Torna al catalogo

FENGYUN 1C DEB

LostPO
NORAD 30900·DEBRIS·🇨🇳 China

Lanciato May 10, 1999 da Taiyuan Satellite Launch Center

Loading…

Prossimi Passaggi (prossime 24 ore)

TLE

ObsoletoSource: Space-Track

Epoca: Jun 24, 2024, 00:30 UTC

1 30900U 99025AYN 24176.02131376  .00005630  00000-0  24542-2 0  9993
2 30900  99.2898 105.4355 0064126 196.9203 162.9835 14.23270029890305

Traccia FENGYUN 1C DEB in tempo reale con AllMySat

Download on the App Store